Location: Ch�tillon
(48.8024°N, 2.2935°E)
Time: 10:10:42
(UTC+00:00)

CAS-4A - Pass Details

Date: 06 July 2022
Orbit: 521 x 536 km, 43.0° (Epoch: 14 August)

Event Time Altitude Azimuth Distance (km) Brightness Sun altitude
Exits shadow 00:58:51 28° 150° (SSE) 988 ? -17.1°
Drops below altitude 10° 01:01:48 10° 106° (ESE) 1,758 ? -17.0°
Sets 01:04:13 0° 95° (E) 2,650 ? -16.9°
